Date String (YYYY-MM-DD hh:mm:ss) UTC,Instrument flags,Ambient pressure (hPa),Sample flow (lpm),Bypass flow (lpm),Sample temperature (°C),Ambient temperature (°C),ASC tube jacket temperature (°C),LED temperature (°C),Box temperature (°C),Sample RH (%),Span deviation,Mass concentration (μg/m³),Mass concentration (μg/m³),Mass concentration (μg/m³)
DateTimeUTC,F1_M11,P_M11,Q1_M11,Q2_M11,T1_M11,T2_M11,T3_M11,T4_M11,T5_M11,U1_M11,ZSPAN_M11,X0_M11,X2_M11,X1_M11
2022-06-06 15:00:00,,0823.7,5.01,0.00,30.1,29.2,00.0,39.0,32.0,22.7,0000.0,0011.38,0003.84,0002.48
2022-06-06 15:01:00,,0823.6,4.99,0.00,30.1,29.2,00.0,39.0,32.0,23.6,0000.0,0011.35,0003.81,0002.43
2022-06-06 15:02:00,,0823.6,5.01,0.00,30.1,29.2,00.0,39.0,32.0,23.4,0000.0,0011.47,0003.79,0002.41
2022-06-06 15:03:00,,0823.6,5.00,0.00,30.1,29.2,00.0,39.0,32.0,23.6,0000.0,0011.51,0003.73,0002.37
2022-06-06 15:04:00,,0823.7,5.00,0.00,30.2,28.7,00.0,39.0,31.9,23.8,0000.0,0011.37,0003.73,0002.37
2022-06-06 15:05:00,,0823.7,5.00,0.00,30.1,27.8,00.0,38.9,31.8,23.0,0000.0,0010.15,0003.72,0002.35
2022-06-06 15:06:00,,0823.6,5.01,0.00,30.0,27.6,00.0,38.8,31.6,23.2,0000.0,0010.68,0003.76,0002.35
2022-06-06 15:07:00,,0823.7,4.99,0.00,29.9,27.6,00.0,38.8,31.5,24.0,0000.0,0010.94,0003.75,0002.35
2022-06-06 15:08:00,,0823.6,5.01,0.00,29.9,27.6,00.0,38.8,31.5,25.5,0000.0,0010.77,0003.73,0002.33
2022-06-06 15:09:00,,0823.7,4.99,0.00,29.8,27.7,00.0,38.8,31.5,25.2,0000.0,0010.54,0003.71,0002.34
2022-06-06 15:10:00,,0823.7,5.00,0.00,29.8,27.9,00.0,38.8,31.5,24.2,0000.0,0010.16,0003.72,0002.36
2022-06-06 15:11:00,,0823.7,5.01,0.00,29.8,28.0,00.0,38.7,31.5,24.4,0000.0,0009.98,0003.72,0002.37
2022-06-06 15:12:00,,0823.7,5.01,0.00,29.8,28.1,00.0,38.7,31.5,25.0,0000.0,0009.97,0003.75,0002.36
2022-06-06 15:13:00,,0823.7,5.00,0.00,29.8,28.2,00.0,38.7,31.6,24.4,0000.0,0009.70,0003.71,0002.35
2022-06-06 15:14:00,,0823.6,4.99,0.00,29.8,28.3,00.0,38.7,31.6,26.1,0000.0,0009.57,0003.73,0002.38
2022-06-06 15:15:00,,0823.7,5.01,0.00,29.8,28.4,00.0,38.7,31.6,27.1,0000.0,0009.55,0003.75,0002.43
2022-06-06 15:16:00,,0823.7,5.00,0.00,29.8,28.5,00.0,38.7,31.6,28.4,0000.0,0009.77,0003.84,0002.45
2022-06-06 15:17:00,,0823.7,4.99,0.00,29.8,28.5,00.0,38.7,31.6,27.7,0000.0,0009.21,0003.88,0002.49
2022-06-06 15:18:00,,0823.8,5.00,0.00,29.8,28.6,00.0,38.7,31.7,26.6,0000.0,0008.55,0003.93,0002.54
2022-06-06 15:19:00,,0823.8,5.00,0.00,29.8,28.6,00.0,38.7,31.7,27.7,0000.0,0009.02,0003.99,0002.59
2022-06-06 15:20:00,,0823.8,5.02,0.00,29.8,28.7,00.0,38.7,31.7,27.5,0000.0,0009.22,0004.02,0002.63
2022-06-06 15:21:00,,0823.8,5.00,0.00,29.8,28.7,00.0,38.7,31.7,26.7,0000.0,0009.38,0004.00,0002.63
2022-06-06 15:22:00,,0823.7,4.99,0.00,29.8,28.7,00.0,38.7,31.7,26.0,0000.0,0010.01,0004.02,0002.65
2022-06-06 15:23:00,,0823.7,5.00,0.00,29.8,28.8,00.0,38.7,31.7,25.6,0000.0,0010.21,0003.98,0002.67
2022-06-06 15:24:00,,0823.7,5.01,0.00,29.8,28.8,00.0,38.7,31.7,26.0,0000.0,0010.48,0004.01,0002.70
2022-06-06 15:25:00,,0823.7,5.00,0.00,29.9,28.8,00.0,38.7,31.8,25.5,0000.0,0010.50,0004.03,0002.72
2022-06-06 15:26:00,,0823.7,4.99,0.00,29.9,28.8,00.0,38.7,31.8,25.6,0000.0,0010.60,0004.05,0002.73
2022-06-06 15:27:00,,0823.7,4.99,0.00,29.9,28.9,00.0,38.8,31.7,25.6,0000.0,0010.46,0004.00,0002.72
2022-06-06 15:28:00,,0823.7,5.00,0.00,29.9,28.9,00.0,38.8,31.7,25.7,0000.0,0010.37,0003.97,0002.70
2022-06-06 15:29:00,,0823.7,5.00,0.00,29.9,28.9,00.0,38.8,31.8,25.3,0000.0,0010.54,0003.97,0002.69
2022-06-06 15:30:00,,0823.7,5.00,0.00,29.9,28.9,00.0,38.8,31.8,27.8,0000.0,0010.51,0003.95,0002.68
2022-06-06 15:31:00,,0823.6,5.01,0.00,29.9,28.9,00.0,38.8,31.8,25.4,0000.0,0011.26,0003.98,0002.66
2022-06-06 15:32:00,,0823.6,5.01,0.00,29.9,29.0,00.0,38.8,31.8,26.3,0000.0,0011.11,0004.01,0002.66
2022-06-06 15:33:00,,0823.6,4.99,0.00,29.9,29.0,00.0,38.8,31.9,26.2,0000.0,0011.08,0004.10,0002.67
2022-06-06 15:34:00,,0823.7,4.99,0.00,29.9,29.0,00.0,38.8,31.9,23.1,0000.0,0011.04,0004.14,0002.63
2022-06-06 15:35:00,,0823.7,4.99,0.00,30.0,29.0,00.0,38.8,31.9,24.9,0000.0,0011.18,0004.15,0002.63
2022-06-06 15:36:00,,0823.7,5.02,0.00,30.0,29.0,00.0,38.8,31.9,25.1,0000.0,0011.29,0004.17,0002.63
2022-06-06 15:37:00,,0823.7,5.00,0.00,30.0,29.0,00.0,38.8,31.9,24.4,0000.0,0011.19,0004.15,0002.59
2022-06-06 15:38:00,,0823.6,4.99,0.00,30.0,28.9,00.0,38.8,31.9,25.7,0000.0,0011.16,0004.13,0002.59
2022-06-06 15:39:00,,0823.6,5.01,0.00,30.0,28.3,00.0,38.8,31.7,25.4,0000.0,0011.18,0004.13,0002.60
2022-06-06 15:40:00,,0823.6,4.99,0.00,29.9,27.6,00.0,38.7,31.5,24.9,0000.0,0010.96,0004.10,0002.58
2022-06-06 15:41:00,,0823.6,5.01,0.00,29.8,27.5,00.0,38.7,31.4,25.3,0000.0,0010.68,0004.08,0002.56
2022-06-06 15:42:00,,0823.6,5.01,0.00,29.7,27.5,00.0,38.7,31.4,25.3,0000.0,0009.95,0004.00,0002.50
2022-06-06 15:43:00,,0823.6,5.00,0.00,29.7,27.6,00.0,38.6,31.4,23.8,0000.0,0009.82,0003.95,0002.43
2022-06-06 15:44:00,,0823.6,4.99,0.00,29.7,27.7,00.0,38.6,31.4,24.2,0000.0,0009.52,0003.87,0002.38
2022-06-06 15:45:00,,0823.6,4.99,0.00,29.6,27.8,00.0,38.6,31.4,25.2,0000.0,0009.44,0003.84,0002.37
2022-06-06 15:46:00,,0823.6,5.00,0.00,29.6,27.9,00.0,38.6,31.4,23.5,0000.0,0009.47,0003.79,0002.36
2022-06-06 15:47:00,,0823.6,5.01,0.00,29.6,28.0,00.0,38.6,31.4,23.0,0000.0,0009.04,0003.72,0002.30
2022-06-06 15:48:00,,0823.6,5.00,0.00,29.6,28.2,00.0,38.6,31.5,22.7,0000.0,0009.00,0003.68,0002.25
2022-06-06 15:49:00,,0823.6,5.00,0.00,29.6,28.2,00.0,38.6,31.5,23.7,0000.0,0009.23,0003.71,0002.21
2022-06-06 15:50:00,,0823.6,4.99,0.00,29.6,28.3,00.0,38.6,31.5,24.6,0000.0,0009.97,0003.72,0002.16
2022-06-06 15:51:00,,0823.6,5.01,0.00,29.6,28.4,00.0,38.6,31.5,24.9,0000.0,0010.43,0003.67,0002.12
2022-06-06 15:52:00,,0823.6,5.00,0.00,29.7,28.5,00.0,38.6,31.5,25.4,0000.0,0010.64,0003.67,0002.10
2022-06-06 15:53:00,,0823.6,5.00,0.00,29.7,28.5,00.0,38.6,31.6,24.3,0000.0,0011.43,0003.72,0002.12
2022-06-06 15:54:00,,0823.6,5.00,0.00,29.7,28.6,00.0,38.6,31.6,24.3,0000.0,0011.77,0003.75,0002.15
2022-06-06 15:55:00,,0823.6,4.99,0.00,29.7,28.7,00.0,38.6,31.6,24.7,0000.0,0011.83,0003.68,0002.16
2022-06-06 15:56:00,,0823.7,5.01,0.00,29.7,28.7,00.0,38.6,31.6,24.3,0000.0,0011.39,0003.63,0002.15
2022-06-06 15:57:00,,0823.6,5.00,0.00,29.7,28.7,00.0,38.6,31.6,24.4,0000.0,0011.12,0003.63,0002.17
2022-06-06 15:58:00,,0823.6,5.01,0.00,29.8,28.8,00.0,38.6,31.7,24.7,0000.0,0011.14,0003.66,0002.20
2022-06-06 15:59:00,,0823.6,5.00,0.00,29.8,28.8,00.0,38.6,31.7,25.9,0000.0,0011.05,0003.64,0002.23
